RYR72JE EGBB-LEIB

Flight info

Callsign RYR72JE
Flight time N/A
Altitude 33000
Route CPT UN859 SOPIL/N0458F350 DCT BALAN DCT EVPOK DCT NARAK DCT GAI DCT LOMRA DCT ROCAN/N0463F310 DCT PUMAL N859 BCN Z174 CORDA
Aircraft B738/M-SDE2E3FGHIRWXY/LB1

Departure

Time 2026-04-29 14:28
Airport Birmingham Airport (EGBB)

Arrival

Time N/A
Airport Ibiza Airport (LEIB)
Time Latitude Longitude Altitude Speed Heading
2026-04-29 14:12 52.45459 -1.73819 321 ft 0 kts 326°
2026-04-29 14:18 52.45443 -1.73801 320 ft 2 kts 326°
2026-04-29 14:19 52.45424 -1.73775 319 ft 4 kts 303°
2026-04-29 14:19 52.45416 -1.73737 319 ft 4 kts 256°
2026-04-29 14:19 52.45416 -1.73728 319 ft 4 kts 236°
2026-04-29 14:19 52.45410 -1.73742 320 ft 0 kts 236°
2026-04-29 14:21 52.45406 -1.73753 320 ft 5 kts 236°
2026-04-29 14:21 52.45364 -1.73855 322 ft 16 kts 236°
2026-04-29 14:22 52.45317 -1.74012 322 ft 16 kts 277°
2026-04-29 14:22 52.45354 -1.74177 322 ft 15 kts 297°
2026-04-29 14:22 52.45400 -1.74329 322 ft 15 kts 297°
2026-04-29 14:22 52.45446 -1.74476 322 ft 14 kts 297°
2026-04-29 14:23 52.45490 -1.74613 322 ft 13 kts 308°
2026-04-29 14:23 52.45571 -1.74682 320 ft 14 kts 334°
2026-04-29 14:23 52.45657 -1.74772 315 ft 16 kts 324°
2026-04-29 14:23 52.45754 -1.74874 309 ft 17 kts 323°
2026-04-29 14:24 52.45850 -1.74985 309 ft 17 kts 324°
2026-04-29 14:24 52.45944 -1.75093 305 ft 16 kts 326°
2026-04-29 14:24 52.46034 -1.75196 303 ft 16 kts 336°
2026-04-29 14:24 52.46122 -1.75293 303 ft 15 kts 331°
2026-04-29 14:25 52.46206 -1.75386 301 ft 14 kts 324°
2026-04-29 14:25 52.46286 -1.75471 302 ft 14 kts 341°
2026-04-29 14:25 52.46358 -1.75567 301 ft 13 kts 320°
2026-04-29 14:25 52.46433 -1.75642 301 ft 13 kts 328°
2026-04-29 14:26 52.46508 -1.75721 304 ft 12 kts 326°
2026-04-29 14:26 52.46578 -1.75799 307 ft 12 kts 324°
2026-04-29 14:26 52.46628 -1.75900 307 ft 12 kts 274°
2026-04-29 14:26 52.46601 -1.76020 303 ft 12 kts 235°
2026-04-29 14:27 52.46537 -1.76076 309 ft 11 kts 165°
2026-04-29 14:27 52.46516 -1.76058 307 ft 3 kts 147°
2026-04-29 14:27 52.46296 -1.75812 308 ft 80 kts 146°
2026-04-29 14:28 52.44639 -1.74035 885 ft 172 kts 138°
2026-04-29 14:28 52.43646 -1.72939 2051 ft 171 kts 136°
2026-04-29 14:28 52.42646 -1.71807 3011 ft 179 kts 136°
2026-04-29 14:28 52.41622 -1.70631 4021 ft 177 kts 140°
2026-04-29 14:29 52.40458 -1.69964 5115 ft 180 kts 162°
2026-04-29 14:29 52.39262 -1.69559 6113 ft 174 kts 158°
2026-04-29 14:29 52.38075 -1.68946 6773 ft 185 kts 149°
2026-04-29 14:29 52.36866 -1.67945 7126 ft 203 kts 148°
2026-04-29 14:30 52.36445 -1.67593 7168 ft 211 kts 148°
2026-04-29 14:30 52.35069 -1.66445 7314 ft 232 kts 149°
2026-04-29 14:30 52.33509 -1.65342 7523 ft 255 kts 154°
2026-04-29 14:30 52.31837 -1.64264 8161 ft 260 kts 155°
2026-04-29 14:31 52.30150 -1.63177 8922 ft 262 kts 155°
2026-04-29 14:31 52.28440 -1.62064 9695 ft 266 kts 155°
2026-04-29 14:31 52.26721 -1.60939 10476 ft 267 kts 154°
2026-04-29 14:31 52.25001 -1.59812 11244 ft 267 kts 155°
2026-04-29 14:32 52.23221 -1.58793 11812 ft 275 kts 159°
2026-04-29 14:32 52.21400 -1.57893 12602 ft 274 kts 159°
2026-04-29 14:32 52.19556 -1.56984 13212 ft 279 kts 159°
2026-04-29 14:32 52.17684 -1.56055 13882 ft 281 kts 159°
2026-04-29 14:33 52.15806 -1.55118 14535 ft 284 kts 159°
2026-04-29 14:33 52.13858 -1.54139 14722 ft 303 kts 159°
2026-04-29 14:33 52.11777 -1.53087 14875 ft 322 kts 159°
2026-04-29 14:33 52.09572 -1.51976 14997 ft 341 kts 159°
2026-04-29 14:34 52.07249 -1.50807 15120 ft 358 kts 160°
2026-04-29 14:34 52.04823 -1.49591 15312 ft 372 kts 160°
2026-04-29 14:34 52.02322 -1.48341 15698 ft 377 kts 160°
2026-04-29 14:34 51.99814 -1.47091 16306 ft 377 kts 160°
2026-04-29 14:35 51.97302 -1.45838 16856 ft 380 kts 160°
2026-04-29 14:35 51.94755 -1.44567 17343 ft 384 kts 160°
2026-04-29 14:35 51.92231 -1.43307 17867 ft 386 kts 159°
2026-04-29 14:35 51.89658 -1.42024 18413 ft 388 kts 159°
2026-04-29 14:36 51.87028 -1.40713 18894 ft 391 kts 160°
2026-04-29 14:36 51.84435 -1.39421 19342 ft 394 kts 160°
2026-04-29 14:36 51.81797 -1.38110 19789 ft 396 kts 160°
2026-04-29 14:36 51.79189 -1.36813 20211 ft 399 kts 160°
2026-04-29 14:37 51.76479 -1.35468 20562 ft 404 kts 161°
2026-04-29 14:37 51.73779 -1.34129 20936 ft 408 kts 161°
2026-04-29 14:37 51.71067 -1.32787 21393 ft 409 kts 161°
2026-04-29 14:37 51.68337 -1.31437 21780 ft 411 kts 161°
2026-04-29 14:38 51.66525 -1.30542 22049 ft 413 kts 161°
2026-04-29 14:38 51.63767 -1.29179 22394 ft 416 kts 161°
2026-04-29 14:38 51.60986 -1.27808 22813 ft 418 kts 161°
2026-04-29 14:38 51.57299 -1.25990 23333 ft 421 kts 161°
2026-04-29 14:39 51.55399 -1.25053 23458 ft 425 kts 160°
2026-04-29 14:39 51.52561 -1.23658 23840 ft 427 kts 161°
2026-04-29 14:39 51.49712 -1.22263 24091 ft 431 kts 161°
2026-04-29 14:39 51.46903 -1.20582 24343 ft 432 kts 153°
2026-04-29 14:40 51.44217 -1.18492 24856 ft 428 kts 153°
2026-04-29 14:40 51.41539 -1.16392 25213 ft 428 kts 153°
2026-04-29 14:40 51.38864 -1.14362 25566 ft 429 kts 154°
2026-04-29 14:40 51.36122 -1.12337 25743 ft 434 kts 155°
2026-04-29 14:41 51.33379 -1.10338 26143 ft 432 kts 155°
2026-04-29 14:41 51.30652 -1.08352 26559 ft 430 kts 155°
2026-04-29 14:41 51.27936 -1.06369 26959 ft 429 kts 155°
2026-04-29 14:41 51.25220 -1.04386 27429 ft 425 kts 156°
2026-04-29 14:42 51.22545 -1.02437 27869 ft 424 kts 156°
2026-04-29 14:42 51.19842 -1.00478 28105 ft 427 kts 156°
2026-04-29 14:42 51.17165 -0.98539 28729 ft 420 kts 156°
2026-04-29 14:42 51.14493 -0.96605 28950 ft 425 kts 156°
2026-04-29 14:43 51.11796 -0.94653 29195 ft 427 kts 156°
2026-04-29 14:43 51.06299 -0.90679 29358 ft 439 kts 156°
2026-04-29 14:43 51.03563 -0.88700 30311 ft 424 kts 156°
2026-04-29 14:44 51.00909 -0.86784 30924 ft 417 kts 156°
2026-04-29 14:44 50.98258 -0.84873 31054 ft 422 kts 156°
2026-04-29 14:44 50.95579 -0.82944 31237 ft 424 kts 156°
2026-04-29 14:44 50.92891 -0.81010 31481 ft 424 kts 156°
2026-04-29 14:45 50.90208 -0.79083 31772 ft 424 kts 156°
2026-04-29 14:45 50.87512 -0.77153 31957 ft 426 kts 156°
2026-04-29 14:45 50.84820 -0.75125 31981 ft 432 kts 151°
2026-04-29 14:46 50.79668 -0.69999 32143 ft 442 kts 147°
2026-04-29 14:46 50.77136 -0.67358 32381 ft 441 kts 147°
2026-04-29 14:46 50.74586 -0.64701 32757 ft 438 kts 147°
2026-04-29 14:46 50.72010 -0.62040 33127 ft 436 kts 147°
2026-04-29 14:47 50.69495 -0.59461 33171 ft 439 kts 148°
2026-04-29 14:47 50.64328 -0.54215 33181 ft 438 kts 148°
2026-04-29 14:48 50.59232 -0.49068 33173 ft 434 kts 148°
2026-04-29 14:48 50.54203 -0.44005 33171 ft 430 kts 148°
2026-04-29 14:49 50.49173 -0.38952 33147 ft 428 kts 148°
2026-04-29 14:49 50.44166 -0.33934 33157 ft 429 kts 148°
2026-04-29 14:50 50.39113 -0.28881 33155 ft 431 kts 148°
2026-04-29 14:50 50.34074 -0.23856 33140 ft 428 kts 148°
2026-04-29 14:51 50.29061 -0.18870 33144 ft 427 kts 148°
2026-04-29 14:51 50.24020 -0.13865 33161 ft 432 kts 148°
2026-04-29 14:52 50.18900 -0.08793 33143 ft 437 kts 148°
2026-04-29 14:52 50.13751 -0.03707 33121 ft 438 kts 148°
2026-04-29 14:53 50.08376 0.00698 33106 ft 438 kts 160°
2026-04-29 14:53 50.02443 0.03084 33114 ft 437 kts 165°
2026-04-29 14:54 49.96536 0.05301 33115 ft 436 kts 165°
2026-04-29 14:54 49.90696 0.07555 33109 ft 435 kts 165°
2026-04-29 14:55 49.84827 0.09849 33103 ft 434 kts 165°
2026-04-29 14:55 49.78977 0.12136 33091 ft 434 kts 165°
2026-04-29 14:56 49.73127 0.14417 33086 ft 433 kts 165°
2026-04-29 14:56 49.67274 0.16691 33076 ft 434 kts 165°
2026-04-29 14:57 49.61434 0.19041 33087 ft 434 kts 165°
2026-04-29 14:57 49.55583 0.21424 33086 ft 435 kts 165°
2026-04-29 14:58 49.49721 0.23799 33081 ft 435 kts 165°
2026-04-29 14:58 49.43884 0.26153 33078 ft 432 kts 165°
2026-04-29 14:59 49.38077 0.28491 33070 ft 430 kts 165°
2026-04-29 14:59 49.32344 0.30792 33074 ft 428 kts 165°
2026-04-29 15:00 49.26597 0.33146 33077 ft 426 kts 165°
2026-04-29 15:00 49.20881 0.35558 33057 ft 426 kts 164°
2026-04-29 15:01 49.15158 0.37973 33052 ft 427 kts 165°
2026-04-29 15:01 49.09421 0.40378 33048 ft 428 kts 164°
2026-04-29 15:02 49.03687 0.42774 33061 ft 427 kts 165°
2026-04-29 15:02 48.97943 0.45169 33037 ft 430 kts 165°
2026-04-29 15:03 48.92115 0.47593 33048 ft 438 kts 165°
2026-04-29 15:03 48.86224 0.50041 33041 ft 441 kts 165°
2026-04-29 15:04 48.80320 0.52485 33039 ft 436 kts 165°
2026-04-29 15:04 48.74480 0.54829 33032 ft 433 kts 166°
2026-04-29 15:05 48.68655 0.57082 33032 ft 431 kts 166°
2026-04-29 15:05 48.62853 0.59339 33038 ft 429 kts 166°
2026-04-29 15:06 48.57070 0.61596 33032 ft 429 kts 166°
2026-04-29 15:06 48.51285 0.63847 33035 ft 430 kts 166°
2026-04-29 15:07 48.45493 0.66188 33030 ft 431 kts 166°
2026-04-29 15:07 48.39706 0.68553 33021 ft 432 kts 166°
2026-04-29 15:08 48.33924 0.70908 33011 ft 433 kts 166°
2026-04-29 15:08 48.28101 0.73263 33022 ft 433 kts 167°
2026-04-29 15:09 48.22288 0.75590 33033 ft 432 kts 167°
2026-04-29 15:09 48.16471 0.77870 32999 ft 432 kts 168°
2026-04-29 15:10 48.10674 0.80142 33001 ft 430 kts 168°
2026-04-29 15:10 48.04886 0.82412 33003 ft 430 kts 168°
2026-04-29 15:11 47.99107 0.84678 32995 ft 429 kts 168°
2026-04-29 15:11 47.93308 0.86945 32990 ft 433 kts 169°
2026-04-29 15:12 47.87430 0.89239 32992 ft 440 kts 168°
2026-04-29 15:12 47.81483 0.91548 32981 ft 441 kts 169°
2026-04-29 15:13 47.75597 0.93822 32967 ft 433 kts 168°
2026-04-29 15:13 47.69781 0.96063 32968 ft 431 kts 168°
2026-04-29 15:14 47.63974 0.98300 32970 ft 430 kts 168°
2026-04-29 15:14 47.58177 1.00532 32971 ft 430 kts 168°
2026-04-29 15:15 47.52388 1.02758 32961 ft 430 kts 168°
2026-04-29 15:15 47.46588 1.04981 32960 ft 430 kts 168°
2026-04-29 15:16 47.40723 1.06485 32951 ft 425 kts 182°
2026-04-29 15:16 47.34819 1.06295 32961 ft 425 kts 184°
2026-04-29 15:17 47.28910 1.06084 32943 ft 425 kts 184°
2026-04-29 15:17 47.23036 1.05933 32949 ft 424 kts 184°
2026-04-29 15:18 47.17138 1.05804 32948 ft 424 kts 184°
2026-04-29 15:18 47.11241 1.05679 32949 ft 423 kts 184°
2026-04-29 15:19 47.05358 1.05552 32948 ft 423 kts 184°
2026-04-29 15:19 46.99483 1.05388 32941 ft 422 kts 184°
2026-04-29 15:20 46.93628 1.05116 32939 ft 421 kts 185°
2026-04-29 15:20 46.87779 1.04841 32938 ft 420 kts 184°
2026-04-29 15:21 46.81946 1.04584 32937 ft 419 kts 184°
2026-04-29 15:21 46.76127 1.04334 32937 ft 419 kts 184°
2026-04-29 15:22 46.70280 1.04084 32933 ft 419 kts 184°
2026-04-29 15:22 46.64452 1.03837 32933 ft 419 kts 184°
2026-04-29 15:23 46.59611 1.03633 32932 ft 419 kts 184°
2026-04-29 15:23 46.53773 1.03385 32930 ft 419 kts 184°
2026-04-29 15:24 46.47966 1.04378 32935 ft 423 kts 170°
2026-04-29 15:24 46.42235 1.06352 32922 ft 424 kts 170°
2026-04-29 15:25 46.36493 1.08312 32927 ft 424 kts 170°
2026-04-29 15:25 46.30747 1.10241 32920 ft 424 kts 170°
2026-04-29 15:26 46.24998 1.12155 32931 ft 424 kts 170°
2026-04-29 15:26 46.19248 1.14063 32925 ft 424 kts 170°
2026-04-29 15:27 46.13507 1.15964 32939 ft 424 kts 170°
2026-04-29 15:27 46.07757 1.17865 32933 ft 424 kts 170°
2026-04-29 15:28 46.02007 1.19762 32922 ft 424 kts 170°
2026-04-29 15:28 45.96264 1.21653 32951 ft 424 kts 170°
2026-04-29 15:29 45.90510 1.23543 32932 ft 424 kts 170°
2026-04-29 15:30 45.79025 1.27304 32936 ft 425 kts 170°
2026-04-29 15:30 45.73259 1.29187 32947 ft 425 kts 170°
2026-04-29 15:31 45.67494 1.31066 32942 ft 425 kts 170°
2026-04-29 15:31 45.61722 1.32944 32941 ft 425 kts 170°
2026-04-29 15:32 45.55961 1.34817 32922 ft 425 kts 170°
2026-04-29 15:32 45.50196 1.36687 32931 ft 424 kts 170°
2026-04-29 15:33 45.44435 1.38545 32935 ft 424 kts 170°
2026-04-29 15:33 45.38686 1.40388 32939 ft 423 kts 170°
2026-04-29 15:34 45.32941 1.42230 32940 ft 423 kts 170°
2026-04-29 15:34 45.27204 1.44071 32945 ft 423 kts 170°
2026-04-29 15:35 45.21471 1.45909 32877 ft 424 kts 170°
2026-04-29 15:35 45.15728 1.47747 32937 ft 422 kts 170°
2026-04-29 15:36 45.10005 1.49573 32942 ft 421 kts 170°
2026-04-29 15:36 45.04286 1.51394 32937 ft 421 kts 170°
2026-04-29 15:37 44.98570 1.53210 32933 ft 421 kts 170°
2026-04-29 15:37 44.92850 1.55025 32940 ft 421 kts 170°
2026-04-29 15:38 44.87127 1.56836 32941 ft 422 kts 170°
2026-04-29 15:38 44.81395 1.58647 32943 ft 423 kts 170°
2026-04-29 15:39 44.75649 1.60459 32941 ft 424 kts 170°
2026-04-29 15:39 44.69895 1.62270 32937 ft 424 kts 170°
2026-04-29 15:40 44.64135 1.64079 32935 ft 424 kts 170°
2026-04-29 15:40 44.58373 1.65885 32943 ft 424 kts 169°
2026-04-29 15:41 44.52608 1.67689 32934 ft 424 kts 169°
2026-04-29 15:41 44.46843 1.69491 32950 ft 424 kts 170°
2026-04-29 15:42 44.41087 1.71286 32939 ft 424 kts 170°
2026-04-29 15:42 44.35374 1.73068 32939 ft 423 kts 169°
2026-04-29 15:43 44.29638 1.74844 32942 ft 422 kts 170°
2026-04-29 15:43 44.23856 1.76238 32939 ft 421 kts 173°
2026-04-29 15:44 44.18062 1.77442 32935 ft 421 kts 173°
2026-04-29 15:44 44.12268 1.78683 32939 ft 421 kts 173°
2026-04-29 15:45 44.06481 1.79955 32933 ft 421 kts 173°
2026-04-29 15:45 44.00693 1.81232 32928 ft 421 kts 172°
2026-04-29 15:46 43.94896 1.82472 32927 ft 421 kts 175°
2026-04-29 15:46 43.89065 1.83111 32928 ft 421 kts 178°
2026-04-29 15:47 43.83220 1.83608 32921 ft 421 kts 178°
2026-04-29 15:47 43.77381 1.84138 32923 ft 420 kts 177°
2026-04-29 15:48 43.71540 1.84698 32919 ft 421 kts 177°
2026-04-29 15:48 43.65705 1.85265 32916 ft 421 kts 177°
2026-04-29 15:49 43.59864 1.85832 32923 ft 420 kts 177°
2026-04-29 15:49 43.54130 1.86387 32914 ft 415 kts 177°
2026-04-29 15:50 43.48360 1.86945 32920 ft 415 kts 177°
2026-04-29 15:50 43.42595 1.87503 32944 ft 415 kts 177°
2026-04-29 15:51 43.36830 1.88058 32942 ft 416 kts 177°
2026-04-29 15:51 43.31044 1.88612 32949 ft 416 kts 177°
2026-04-29 15:52 43.25269 1.89160 32926 ft 415 kts 177°
2026-04-29 15:52 43.19507 1.89710 32911 ft 416 kts 176°
2026-04-29 15:53 43.13688 1.90267 32933 ft 422 kts 176°
2026-04-29 15:53 43.07819 1.90829 32921 ft 423 kts 176°
2026-04-29 15:54 43.01966 1.91389 32925 ft 420 kts 176°
2026-04-29 15:54 42.96122 1.91948 32932 ft 422 kts 176°
2026-04-29 15:55 42.90257 1.92507 32942 ft 424 kts 176°
2026-04-29 15:55 42.84353 1.93070 32931 ft 426 kts 176°
2026-04-29 15:56 42.78428 1.93634 32925 ft 428 kts 176°
2026-04-29 15:56 42.72477 1.94202 32943 ft 429 kts 176°
2026-04-29 15:57 42.66521 1.94806 32943 ft 430 kts 174°
2026-04-29 15:57 42.60604 1.95949 32962 ft 429 kts 172°
2026-04-29 15:58 42.54691 1.97191 32963 ft 430 kts 172°
2026-04-29 15:58 42.48784 1.98391 32977 ft 429 kts 172°
2026-04-29 15:59 42.42883 1.99563 32979 ft 427 kts 172°
2026-04-29 15:59 42.37056 2.00717 32983 ft 425 kts 173°
2026-04-29 16:00 42.31192 2.01454 32979 ft 423 kts 177°
2026-04-29 16:00 42.25316 2.01944 32978 ft 423 kts 177°
2026-04-29 16:01 42.19451 2.02455 32991 ft 422 kts 177°
2026-04-29 16:01 42.13585 2.03005 32982 ft 423 kts 177°
2026-04-29 16:02 42.07710 2.03567 32979 ft 424 kts 177°
2026-04-29 16:02 42.01815 2.04130 32977 ft 425 kts 177°
2026-04-29 16:03 41.95894 2.04697 32962 ft 427 kts 177°
2026-04-29 16:03 41.89948 2.05265 32965 ft 429 kts 177°
2026-04-29 16:04 41.83983 2.05835 32967 ft 431 kts 177°
2026-04-29 16:04 41.77996 2.06406 32973 ft 432 kts 177°
2026-04-29 16:05 41.71982 2.06981 32970 ft 433 kts 177°
2026-04-29 16:05 41.65964 2.07547 32966 ft 434 kts 177°
2026-04-29 16:06 41.59935 2.08097 32973 ft 434 kts 177°
2026-04-29 16:06 41.53948 2.08645 32970 ft 434 kts 177°
2026-04-29 16:07 41.47929 2.09201 32966 ft 433 kts 177°
2026-04-29 16:07 41.41921 2.09757 32973 ft 432 kts 177°
2026-04-29 16:08 41.35926 2.10312 32966 ft 432 kts 177°
2026-04-29 16:08 41.29930 2.10882 32960 ft 432 kts 176°
2026-04-29 16:09 41.24970 2.11634 32968 ft 432 kts 174°
2026-04-29 16:09 41.19016 2.12685 32970 ft 432 kts 174°
2026-04-29 16:10 41.13052 2.13726 32960 ft 432 kts 174°
2026-04-29 16:10 41.07083 2.14738 32959 ft 433 kts 174°
2026-04-29 16:11 41.01106 2.15737 32961 ft 434 kts 175°
2026-04-29 16:11 40.95105 2.16737 32961 ft 437 kts 174°
2026-04-29 16:12 40.89006 2.17750 32958 ft 446 kts 175°
2026-04-29 16:12 40.82795 2.18781 32956 ft 453 kts 175°
2026-04-29 16:13 40.76530 2.19821 32948 ft 454 kts 175°
2026-04-29 16:13 40.70257 2.20861 32947 ft 455 kts 175°